| time (UTC) | temp F | wind direction | speed MPH | gust MPH | rain 1hr in | rain 24hr in | rain mn in | humidity % | barometer mb |
| 20260831120615 | 75 | 140 | 0.0 | 0.0 | 0.00 | 0.00 | 0.00 | 1015.7 | |
| 20260831120152 | 75 | 140 | 0.0 | 0.0 | 0.00 | 0.00 | 0.00 | 1015.8 | |
| 20260831115621 | 75 | 140 | 0.0 | 0.0 | 0.00 | 0.00 | 0.00 | 1015.7 | |
| 20260831115158 | 75 | 140 | 0.0 | 0.0 | 0.00 | 0.00 | 0.00 | 1015.7 | |
| 20260831114725 | 75 | 139 | 0.0 | 0.0 | 0.00 | 0.00 | 0.00 | 1015.8 | |
| 20260831114129 | 76 | 139 | 0.0 | 0.0 | 0.00 | 0.00 | 0.00 | 1015.7 | |
| 20260831113706 | 76 | 140 | 0.0 | 0.0 | 0.00 | 0.00 | 0.00 | 1015.7 | |
| 20260831113118 | 76 | 140 | 0.0 | 0.0 | 0.00 | 0.00 | 0.00 | 1015.7 | |
| 20260831112655 | 76 | 140 | 0.0 | 0.0 | 0.00 | 0.00 | 0.00 | 1015.7 | |
| 20260831112125 | 76 | 139 | 0.0 | 2.0 | 0.00 | 0.00 | 0.00 | 1015.8 | |
| 20260831111702 | 76 | 139 | 1.0 | 4.0 | 0.00 | 0.00 | 0.00 | 1015.7 | |
| 20260831111148 | 75 | 161 | 2.0 | 4.0 | 0.00 | 0.00 | 0.00 | 1015.8 | |
| 20260831110703 | 75 | 130 | 1.0 | 3.0 | 0.00 | 0.00 | 0.00 | 1015.8 | |
| 20260831110131 | 75 | 131 | 0.0 | 4.0 | 0.00 | 0.00 | 0.00 | 1015.8 | |
| 20260831105640 | 75 | 65 | 0.0 | 2.0 | 0.00 | 0.00 | 0.00 | 1015.8 | |
| 20260831105214 | 76 | 65 | 0.0 | 2.0 | 0.00 | 0.00 | 0.00 | 1015.8 | |
| 20260831104723 | 76 | 65 | 0.0 | 2.0 | 0.00 | 0.00 | 0.00 | 1015.8 | |
| 20260831104129 | 76 | 65 | 1.0 | 2.0 | 0.00 | 0.00 | 0.00 | 1015.9 | |
| 20260831103706 | 76 | 65 | 0.0 | 1.0 | 0.00 | 0.00 | 0.00 | 1015.8 | |
| 20260831103118 | 76 | 65 | 0.0 | 1.0 | 0.00 | 0.00 | 0.00 | 1015.9 | |
| 20260831102655 | 76 | 65 | 0.0 | 2.0 | 0.00 | 0.00 | 0.00 | 1015.8 | |
| 20260831102225 | 76 | 65 | 1.0 | 2.0 | 0.00 | 0.00 | 0.00 | 1015.9 | |
| 20260831101640 | 76 | 105 | 1.0 | 2.0 | 0.00 | 0.00 | 0.00 | 1016.0 | |
| 20260831101145 | 76 | 105 | 0.0 | 0.0 | 0.00 | 0.00 | 0.00 | 1016.0 | |
| 20260831100622 | 76 | 105 | 0.0 | 0.0 | 0.00 | 0.00 | 0.00 | 1016.0 | |
| 20260831100149 | 76 | 105 | 0.0 | 0.0 | 0.00 | 0.00 | 0.00 | 1016.0 | |
| 20260831095626 | 76 | 105 | 0.0 | 0.0 | 0.00 | 0.00 | 0.00 | 1015.9 | |
| 20260831095154 | 76 | 105 | 0.0 | 0.0 | 0.00 | 0.00 | 0.00 | 1016.0 | |
| 20260831094724 | 76 | 105 | 0.0 | 0.0 | 0.00 | 0.00 | 0.00 | 1016.0 | |
| 20260831094141 | 76 | 105 | 0.0 | 0.0 | 0.00 | 0.00 | 0.00 | 1015.9 | |
| 20260831093800 | 76 | 105 | 0.0 | 0.0 | 0.00 | 0.00 | 0.00 | 1015.8 | |
| 20260831092625 | 76 | 105 | 0.0 | 2.0 | 0.00 | 0.00 | 0.00 | 1015.8 | |
| 20260831092201 | 76 | 105 | 0.0 | 2.0 | 0.00 | 0.00 | 0.00 | 1015.9 | |
| 20260831091630 | 76 | 105 | 1.0 | 2.0 | 0.00 | 0.00 | 0.00 | 1015.8 | |
| 20260831091138 | 77 | 105 | 1.0 | 2.0 | 0.00 | 0.00 | 0.00 | 1015.8 | |
| 20260831090613 | 77 | 105 | 0.0 | 0.0 | 0.00 | 0.00 | 0.00 | 1015.8 | |
| 20260831090143 | 77 | 105 | 0.0 | 0.0 | 0.00 | 0.00 | 0.00 | 1015.8 | |
| 20260831085617 | 77 | 105 | 0.0 | 0.0 | 0.00 | 0.00 | 0.00 | 1015.8 | |
| 20260831085146 | 77 | 105 | 0.0 | 0.0 | 0.00 | 0.00 | 0.00 | 1015.8 | |
| 20260831084626 | 77 | 105 | 0.0 | 0.0 | 0.00 | 0.00 | 0.00 | 1015.8 | |
| 20260831084155 | 77 | 105 | 0.0 | 0.0 | 0.00 | 0.00 | 0.00 | 1015.8 | |
| 20260831083632 | 77 | 105 | 0.0 | 0.0 | 0.00 | 0.00 | 0.00 | 1015.8 | |
| 20260831083141 | 77 | 105 | 0.0 | 1.0 | 0.00 | 0.00 | 0.00 | 1015.9 | |
| 20260831082711 | 77 | 105 | 0.0 | 1.0 | 0.00 | 0.00 | 0.00 | 1016.0 | |
| 20260831082119 | 77 | 105 | 0.0 | 1.0 | 0.00 | 0.00 | 0.00 | 1016.0 | |
| 20260831081656 | 77 | 105 | 0.0 | 1.0 | 0.00 | 0.00 | 0.00 | 1016.0 | |
| 20260831081125 | 78 | 105 | 0.0 | 0.0 | 0.00 | 0.00 | 0.00 | 1016.0 | |
| 20260831080702 | 78 | 105 | 0.0 | 0.0 | 0.00 | 0.00 | 0.00 | 1016.0 | |
| 20260831080135 | 78 | 105 | 0.0 | 1.0 | 0.00 | 0.00 | 0.00 | 1015.9 | |
| 20260831075612 | 78 | 105 | 0.0 | 2.0 | 0.00 | 0.00 | 0.00 | 1016.0 | |
| 20260831075141 | 78 | 105 | 0.0 | 4.0 | 0.00 | 0.00 | 0.00 | 1016.0 | |
| 20260831074657 | 78 | 105 | 1.0 | 4.0 | 0.00 | 0.00 | 0.00 | 1016.0 | |
| 20260831074126 | 79 | 132 | 1.0 | 2.0 | 0.00 | 0.00 | 0.00 | 1016.1 | |
| 20260831073703 | 79 | 132 | 1.0 | 2.0 | 0.00 | 0.00 | 0.00 | 1016.0 | |
| 20260831073132 | 79 | 132 | 1.0 | 2.0 | 0.00 | 0.00 | 0.00 | 1015.9 | |
| 20260831072708 | 79 | 132 | 1.0 | 2.0 | 0.00 | 0.00 | 0.00 | 1015.9 | |
| 20260831072131 | 79 | 152 | 1.0 | 5.0 | 0.00 | 0.00 | 0.00 | 1015.9 | |
| 20260831071706 | 79 | 152 | 1.0 | 6.0 | 0.00 | 0.00 | 0.00 | 1016.0 | |
| 20260831071139 | 79 | 152 | 3.0 | 6.0 | 0.00 | 0.00 | 0.00 | 1016.0 | |
| 20260831070707 | 79 | 125 | 2.0 | 4.0 | 0.00 | 0.00 | 0.00 | 1016.0 | |
| 20260831070143 | 79 | 117 | 1.0 | 6.0 | 0.00 | 0.00 | 0.00 | 1015.9 | |
| 20260831065623 | 80 | 124 | 3.0 | 6.0 | 0.00 | 0.00 | 0.00 | 1016.0 | |
| 20260831065129 | 80 | 115 | 4.0 | 6.0 | 0.00 | 0.00 | 0.00 | 1016.1 | |
| 20260831064617 | 80 | 100 | 2.0 | 6.0 | 0.00 | 0.00 | 0.00 | 1016.1 | |
| 20260831064132 | 80 | 111 | 3.0 | 7.0 | 0.00 | 0.00 | 0.00 | 1016.1 | |
| 20260831063621 | 80 | 154 | 5.0 | 8.0 | 0.00 | 0.00 | 0.00 | 1016.1 | |
| 20260831063122 | 80 | 105 | 5.0 | 8.0 | 0.00 | 0.00 | 0.00 | 1016.1 | |
| 20260831062631 | 81 | 116 | 1.0 | 8.0 | 0.00 | 0.00 | 0.00 | 1016.0 | |
| 20260831062129 | 81 | 160 | 4.0 | 8.0 | 0.00 | 0.00 | 0.00 | 1016.1 | |
| 20260831061618 | 81 | 128 | 4.0 | 11.0 | 0.00 | 0.00 | 0.00 | 1016.0 | |
| 20260831061117 | 81 | 154 | 6.0 | 12.0 | 0.00 | 0.00 | 0.00 | 1015.9 | |
| 20260831060626 | 81 | 155 | 5.0 | 12.0 | 0.00 | 0.00 | 0.00 | 1015.9 | |
| 20260831060126 | 81 | 138 | 3.0 | 10.0 | 0.00 | 0.00 | 0.00 | 1015.9 | |
| 20260831055633 | 81 | 169 | 4.0 | 11.0 | 0.00 | 0.00 | 0.00 | 1015.9 | |
| 20260831055130 | 81 | 138 | 5.0 | 14.0 | 0.00 | 0.00 | 0.00 | 1015.8 | |
| 20260831054639 | 81 | 161 | 5.0 | 10.0 | 0.00 | 0.00 | 0.00 | 1015.8 | |
| 20260831054121 | 81 | 150 | 3.0 | 7.0 | 0.00 | 0.00 | 0.00 | 1015.6 | |
| 20260831053630 | 82 | 128 | 5.0 | 7.0 | 0.00 | 0.00 | 0.00 | 1015.6 | |
| 20260831053129 | 82 | 138 | 2.0 | 8.0 | 0.00 | 0.00 | 0.00 | 1015.7 | |
| 20260831052636 | 82 | 143 | 5.0 | 8.0 | 0.00 | 0.00 | 0.00 | 1015.6 | |
| 20260831052116 | 82 | 131 | 4.0 | 8.0 | 0.00 | 0.00 | 0.00 | 1015.6 | |
| 20260831051617 | 82 | 126 | 5.0 | 8.0 | 0.00 | 0.00 | 0.00 | 1015.6 | |
| 20260831051126 | 83 | 121 | 5.0 | 7.0 | 0.00 | 0.00 | 0.00 | 1015.5 | |
| 20260831050623 | 83 | 108 | 3.0 | 8.0 | 0.00 | 0.00 | 0.00 | 1015.5 | |
| 20260831050122 | 83 | 132 | 4.0 | 10.0 | 0.00 | 0.00 | 0.00 | 1015.5 | |
| 20260831045645 | 83 | 132 | 6.0 | 12.0 | 0.00 | 0.00 | 0.00 | 1015.4 | |
| 20260831045116 | 83 | 153 | 7.0 | 12.0 | 0.00 | 0.00 | 0.00 | 1015.4 | |
| 20260831044629 | 84 | 175 | 5.0 | 12.0 | 0.00 | 0.00 | 0.00 | 1015.4 | |
| 20260831044136 | 84 | 146 | 6.0 | 12.0 | 0.00 | 0.00 | 0.00 | 1015.3 | |
| 20260831043650 | 84 | 135 | 6.0 | 11.0 | 0.00 | 0.00 | 0.00 | 1015.3 | |
| 20260831043121 | 84 | 150 | 5.0 | 10.0 | 0.00 | 0.00 | 0.00 | 1015.2 | |
| 20260831042654 | 84 | 132 | 5.0 | 10.0 | 0.00 | 0.00 | 0.00 | 1015.2 | |
| 20260831042121 | 84 | 126 | 7.0 | 12.0 | 0.00 | 0.00 | 0.00 | 1015.1 | |
| 20260831041655 | 85 | 138 | 6.0 | 12.0 | 0.00 | 0.00 | 0.00 | 1015.1 | |
| 20260831041117 | 85 | 159 | 6.0 | 12.0 | 0.00 | 0.00 | 0.00 | 1015.2 | |
| 20260831040650 | 85 | 138 | 5.0 | 11.0 | 0.00 | 0.00 | 0.00 | 1015.0 | |
| 20260831035640 | 85 | 146 | 6.0 | 10.0 | 0.00 | 0.00 | 0.00 | 1015.0 | |
| 20260831035245 | 85 | 142 | 7.0 | 10.0 | 0.00 | 0.00 | 0.00 | 1014.9 | |
| 20260831034703 | 86 | 136 | 4.0 | 8.0 | 0.00 | 0.00 | 0.00 | 1014.9 | |
| 20260831034132 | 86 | 136 | 4.0 | 10.0 | 0.00 | 0.00 | 0.00 | 1014.8 | |
| 20260831033628 | 86 | 151 | 6.0 | 12.0 | 0.00 | 0.00 | 0.00 | 1014.8 | |
| 20260831033136 | 86 | 121 | 5.0 | 13.0 | 0.00 | 0.00 | 0.00 | 1014.8 | |
| 20260831032648 | 86 | 142 | 8.0 | 13.0 | 0.00 | 0.00 | 0.00 | 1014.8 | |
| 20260831032210 | 86 | 133 | 6.0 | 9.0 | 0.00 | 0.00 | 0.00 | 1014.7 | |
| 20260831031644 | 86 | 143 | 3.0 | 9.0 | 0.00 | 0.00 | 0.00 | 1014.7 | |
| 20260831031207 | 86 | 141 | 4.0 | 9.0 | 0.00 | 0.00 | 0.00 | 1014.6 | |
| 20260831030704 | 87 | 144 | 3.0 | 7.0 | 0.00 | 0.00 | 0.00 | 1014.6 | |
| 20260831030129 | 87 | 180 | 3.0 | 9.0 | 0.00 | 0.00 | 0.00 | 1014.5 | |
| 20260831025658 | 87 | 171 | 5.0 | 9.0 | 0.00 | 0.00 | 0.00 | 1014.5 | |
| 20260831025147 | 87 | 113 | 5.0 | 9.0 | 0.00 | 0.00 | 0.00 | 1014.3 | |
| 20260831024638 | 87 | 133 | 6.0 | 9.0 | 0.00 | 0.00 | 0.00 | 1014.2 | |
| 20260831024115 | 87 | 161 | 5.0 | 9.0 | 0.00 | 0.00 | 0.00 | 1014.1 | |
| 20260831023632 | 87 | 149 | 5.0 | 9.0 | 0.00 | 0.00 | 0.00 | 1014.1 | |
| 20260831023206 | 87 | 160 | 5.0 | 9.0 | 0.00 | 0.00 | 0.00 | 1013.9 | |
| 20260831022700 | 87 | 145 | 6.0 | 10.0 | 0.00 | 0.00 | 0.00 | 1013.8 | |
| 20260831022125 | 88 | 130 | 7.0 | 11.0 | 0.00 | 0.00 | 0.00 | 1013.7 | |
| 20260831021653 | 88 | 148 | 7.0 | 11.0 | 0.00 | 0.00 | 0.00 | 1013.5 | |
| 20260831021202 | 88 | 135 | 6.0 | 9.0 | 0.00 | 0.00 | 0.00 | 1013.5 | |
| 20260831020636 | 88 | 149 | 4.0 | 10.0 | 0.00 | 0.00 | 0.00 | 1013.4 | |
| 20260831020145 | 88 | 122 | 6.0 | 10.0 | 0.00 | 0.00 | 0.00 | 1013.3 | |
| 20260831015618 | 89 | 105 | 5.0 | 9.0 | 0.00 | 0.00 | 0.00 | 1013.3 | |
| 20260831015155 | 89 | 153 | 5.0 | 9.0 | 0.00 | 0.00 | 0.00 | 1013.2 | |
| 20260831014624 | 89 | 119 | 6.0 | 10.0 | 0.00 | 0.00 | 0.00 | 1013.2 | |
| 20260831014200 | 89 | 120 | 7.0 | 10.0 | 0.00 | 0.00 | 0.00 | 1013.2 | |
| 20260831013630 | 90 | 107 | 3.0 | 13.0 | 0.00 | 0.00 | 0.00 | 1013.1 | |
| 20260831013117 | 90 | 134 | 6.0 | 13.0 | 0.00 | 0.00 | 0.00 | 1013.0 | |
| 20260831012630 | 90 | 134 | 5.0 | 8.0 | 0.00 | 0.00 | 0.00 | 1013.0 | |
| 20260831012159 | 91 | 136 | 0.0 | 0.0 | 0.00 | 0.00 | 0.00 | 1012.9 | |
| 20260831011615 | 91 | 136 | 0.0 | 1.0 | 0.00 | 0.00 | 0.00 | 1012.8 | |
| 20260831011144 | 92 | 136 | 0.0 | 2.0 | 0.00 | 0.00 | 0.00 | 1012.8 | |
| 20260831010720 | 92 | 136 | 1.0 | 4.0 | 0.00 | 0.00 | 0.00 | 1012.8 | |
| 20260831010129 | 93 | 136 | 1.0 | 4.0 | 0.00 | 0.00 | 0.00 | 1012.7 | |
| 20260831005706 | 93 | 129 | 2.0 | 5.0 | 0.00 | 0.00 | 0.00 | 1012.7 | |
| 20260831005135 | 93 | 129 | 2.0 | 5.0 | 0.00 | 0.00 | 0.00 | 1012.6 | |
| 20260831004710 | 93 | 141 | 2.0 | 4.0 | 0.00 | 0.00 | 0.00 | 1012.6 | |
| 20260831004138 | 93 | 129 | 1.0 | 5.0 | 0.00 | 0.00 | 0.00 | 1012.6 | |
| 20260831003614 | 94 | 129 | 3.0 | 7.0 | 0.00 | 0.00 | 0.00 | 1012.5 | |
| 20260831003141 | 94 | 104 | 3.0 | 7.0 | 0.00 | 0.00 | 0.00 | 1012.5 | |
| 20260831002656 | 94 | 163 | 3.0 | 8.0 | 0.00 | 0.00 | 0.00 | 1012.5 | |
| 20260831002225 | 94 | 132 | 3.0 | 9.0 | 0.00 | 0.00 | 0.00 | 1012.5 | |
| 20260831001641 | 95 | 134 | 6.0 | 11.0 | 0.00 | 0.00 | 0.00 | 1012.5 | |
| 20260831001208 | 95 | 98 | 5.0 | 11.0 | 0.00 | 0.00 | 0.00 | 1012.6 | |
| 20260831000644 | 95 | 139 | 5.0 | 10.0 | 0.00 | 0.00 | 0.00 | 1012.5 | |
| 20260831000113 | 95 | 129 | 4.0 | 8.0 | 0.00 | 0.00 | 0.00 | 1012.6 | |
| 20260830235649 | 96 | 131 | 5.0 | 8.0 | 0.00 | 0.00 | 0.00 | 1012.5 | |
| 20260830235154 | 96 | 123 | 5.0 | 7.0 | 0.00 | 0.00 | 0.00 | 1012.5 | |
| 20260830234707 | 96 | 93 | 4.0 | 8.0 | 0.00 | 0.00 | 0.00 | 1012.5 | |
| 20260830234135 | 95 | 111 | 2.0 | 8.0 | 0.00 | 0.00 | 0.00 | 1012.5 | |
| 20260830233704 | 96 | 153 | 5.0 | 11.0 | 0.00 | 0.00 | 0.00 | 1012.6 | |
| 20260830233143 | 96 | 146 | 8.0 | 11.0 | 0.00 | 0.00 | 0.00 | 1012.6 | |
| 20260830232712 | 96 | 175 | 3.0 | 9.0 | 0.00 | 0.00 | 0.00 | 1012.5 | |
| 20260830232149 | 96 | 142 | 4.0 | 10.0 | 0.00 | 0.00 | 0.00 | 1012.5 | |
| 20260830231616 | 96 | 148 | 6.0 | 10.0 | 0.00 | 0.00 | 0.00 | 1012.6 | |
| 20260830231151 | 96 | 129 | 6.0 | 12.0 | 0.00 | 0.00 | 0.00 | 1012.5 | |
| 20260830230658 | 96 | 140 | 6.0 | 12.0 | 0.00 | 0.00 | 0.00 | 1012.5 | |
| 20260830230135 | 96 | 86 | 5.0 | 13.0 | 0.00 | 0.00 | 0.00 | 1012.5 | |
| 20260830225640 | 96 | 146 | 7.0 | 13.0 | 0.00 | 0.00 | 0.00 | 1012.6 | |
| 20260830225117 | 96 | 142 | 6.0 | 14.0 | 0.00 | 0.00 | 0.00 | 1012.6 | |
| 20260830224647 | 96 | 161 | 7.0 | 14.0 | 0.00 | 0.00 | 0.00 | 1012.7 | |
| 20260830224223 | 96 | 151 | 5.0 | 13.0 | 0.00 | 0.00 | 0.00 | 1012.7 | |
| 20260830223634 | 96 | 116 | 7.0 | 13.0 | 0.00 | 0.00 | 0.00 | 1012.7 | |
| 20260830223150 | 96 | 120 | 6.0 | 12.0 | 0.00 | 0.00 | 0.00 | 1012.8 | |
| 20260830222620 | 96 | 146 | 8.0 | 12.0 | 0.00 | 0.00 | 0.00 | 1012.9 | |
| 20260830222156 | 96 | 126 | 7.0 | 12.0 | 0.00 | 0.00 | 0.00 | 1012.7 | |
| 20260830221625 | 97 | 37 | 7.0 | 11.0 | 0.00 | 0.00 | 0.00 | 1012.9 | |
| 20260830221202 | 97 | 124 | 6.0 | 11.0 | 0.00 | 0.00 | 0.00 | 1012.8 | |
| 20260830220627 | 97 | 167 | 7.0 | 13.0 | 0.00 | 0.00 | 0.00 | 1012.9 | |
| 20260830220157 | 97 | 196 | 8.0 | 13.0 | 0.00 | 0.00 | 0.00 | 1012.9 | |
| 20260830215637 | 97 | 171 | 4.0 | 11.0 | 0.00 | 0.00 | 0.00 | 1012.9 | |
| 20260830215204 | 96 | 168 | 6.0 | 11.0 | 0.00 | 0.00 | 0.00 | 1013.0 | |
| 20260830214620 | 96 | 202 | 4.0 | 11.0 | 0.00 | 0.00 | 0.00 | 1012.9 | |
| 20260830214150 | 96 | 131 | 7.0 | 11.0 | 0.00 | 0.00 | 0.00 | 1013.0 | |
| 20260830213703 | 96 | 123 | 5.0 | 10.0 | 0.00 | 0.00 | 0.00 | 1013.0 | |
| 20260830213131 | 96 | 126 | 5.0 | 11.0 | 0.00 | 0.00 | 0.00 | 1013.2 | |
| 20260830212139 | 96 | 151 | 6.0 | 14.0 | 0.00 | 0.00 | 0.00 | 1013.3 | |
| 20260830211618 | 96 | 131 | 5.0 | 18.0 | 0.00 | 0.00 | 0.00 | 1013.4 | |
| 20260830211144 | 96 | 145 | 10.0 | 18.0 | 0.00 | 0.00 | 0.00 | 1013.5 | |
| 20260830210659 | 95 | 121 | 5.0 | 11.0 | 0.00 | 0.00 | 0.00 | 1013.5 | |
| 20260830210205 | 95 | 111 | 6.0 | 13.0 | 0.00 | 0.00 | 0.00 | 1013.5 | |
| 20260830205640 | 95 | 188 | 7.0 | 14.0 | 0.00 | 0.00 | 0.00 | 1013.6 | |
| 20260830205204 | 95 | 160 | 6.0 | 14.0 | 0.00 | 0.00 | 0.00 | 1013.8 | |
| 20260830204634 | 94 | 133 | 7.0 | 11.0 | 0.00 | 0.00 | 0.00 | 1013.9 | |
| 20260830204205 | 94 | 161 | 4.0 | 13.0 | 0.00 | 0.00 | 0.00 | 1014.0 | |
| 20260830203634 | 94 | 120 | 6.0 | 12.0 | 0.00 | 0.00 | 0.00 | 1014.1 | |
| 20260830203209 | 94 | 140 | 6.0 | 13.0 | 0.00 | 0.00 | 0.00 | 1014.2 | |
| 20260830202638 | 94 | 144 | 8.0 | 13.0 | 0.00 | 0.00 | 0.00 | 1014.3 | |
| 20260830202212 | 94 | 194 | 5.0 | 9.0 | 0.00 | 0.00 | 0.00 | 1014.2 | |
| 20260830201625 | 93 | 157 | 4.0 | 9.0 | 0.00 | 0.00 | 0.00 | 1014.3 | |
| 20260830201201 | 93 | 110 | 5.0 | 13.0 | 0.00 | 0.00 | 0.00 | 1014.6 | |
| 20260830200630 | 93 | 136 | 9.0 | 13.0 | 0.00 | 0.00 | 0.00 | 1014.7 | |
| 20260830200139 | 94 | 161 | 8.0 | 12.0 | 0.00 | 0.00 | 0.00 | 1014.7 | |
| 20260830195655 | 94 | 153 | 6.0 | 15.0 | 0.00 | 0.00 | 0.00 | 1014.7 | |
| 20260830195125 | 93 | 210 | 9.0 | 15.0 | 0.00 | 0.00 | 0.00 | 1014.9 | |
| 20260830194700 | 93 | 172 | 7.0 | 15.0 | 0.00 | 0.00 | 0.00 | 1015.0 | |
| 20260830194208 | 93 | 133 | 7.0 | 15.0 | 0.00 | 0.00 | 0.00 | 1015.0 | |
| 20260830193648 | 93 | 192 | 5.0 | 15.0 | 0.00 | 0.00 | 0.00 | 1015.2 | |
| 20260830193117 | 93 | 187 | 8.0 | 12.0 | 0.00 | 0.00 | 0.00 | 1015.3 | |
| 20260830192647 | 92 | 159 | 5.0 | 11.0 | 0.00 | 0.00 | 0.00 | 1015.3 | |
| 20260830192223 | 92 | 131 | 6.0 | 11.0 | 0.00 | 0.00 | 0.00 | 1015.4 | |
| 20260830191631 | 92 | 176 | 6.0 | 14.0 | 0.00 | 0.00 | 0.00 | 1015.5 | |
| 20260830191147 | 93 | 128 | 8.0 | 14.0 | 0.00 | 0.00 | 0.00 | 1015.5 | |
| 20260830190717 | 93 | 121 | 5.0 | 11.0 | 0.00 | 0.00 | 0.00 | 1015.5 | |
| 20260830190124 | 93 | 219 | 5.0 | 13.0 | 0.00 | 0.00 | 0.00 | 1015.6 | |
| 20260830185700 | 93 | 146 | 6.0 | 13.0 | 0.00 | 0.00 | 0.00 | 1015.6 | |
| 20260830185133 | 93 | 111 | 6.0 | 14.0 | 0.00 | 0.00 | 0.00 | 1015.7 | |
| 20260830184708 | 93 | 129 | 8.0 | 16.0 | 0.00 | 0.00 | 0.00 | 1015.8 | |
| 20260830184137 | 92 | 163 | 6.0 | 16.0 | 0.00 | 0.00 | 0.00 | 1015.8 | |
| 20260830183652 | 92 | 150 | 8.0 | 12.0 | 0.00 | 0.00 | 0.00 | 1016.0 | |
| 20260830183221 | 92 | 161 | 8.0 | 12.0 | 0.00 | 0.00 | 0.00 | 1016.1 | |
| 20260830182637 | 92 | 165 | 6.0 | 16.0 | 0.00 | 0.00 | 0.00 | 1016.2 | |
| 20260830182123 | 92 | 174 | 5.0 | 16.0 | 0.00 | 0.00 | 0.00 | 1016.3 | |
| 20260830181652 | 92 | 5 | 4.0 | 11.0 | 0.00 | 0.00 | 0.00 | 1016.4 | |
| 20260830181208 | 91 | 187 | 7.0 | 15.0 | 0.00 | 0.00 | 0.00 | 1016.5 | |
| 20260830180635 | 91 | 74 | 5.0 | 10.0 | 0.00 | 0.00 | 0.00 | 1016.5 | |
| 20260830180115 | 91 | 232 | 3.0 | 16.0 | 0.00 | 0.00 | 0.00 | 1016.6 | |
| 20260830175623 | 91 | 161 | 7.0 | 16.0 | 0.00 | 0.00 | 0.00 | 1016.7 | |
| 20260830175158 | 91 | 140 | 6.0 | 10.0 | 0.00 | 0.00 | 0.00 | 1016.7 | |
| 20260830174626 | 90 | 178 | 6.0 | 9.0 | 0.00 | 0.00 | 0.00 | 1016.7 | |
| 20260830174202 | 90 | 159 | 6.0 | 11.0 | 0.00 | 0.00 | 0.00 | 1016.8 | |
| 20260830173632 | 90 | 96 | 6.0 | 11.0 | 0.00 | 0.00 | 0.00 | 1016.8 | |
| 20260830173206 | 90 | 151 | 5.0 | 10.0 | 0.00 | 0.00 | 0.00 | 1016.8 | |
| 20260830172635 | 90 | 169 | 5.0 | 11.0 | 0.00 | 0.00 | 0.00 | 1016.9 | |
| 20260830172148 | 90 | 123 | 6.0 | 11.0 | 0.00 | 0.00 | 0.00 | 1017.0 | |
| 20260830171616 | 90 | 5 | 5.0 | 10.0 | 0.00 | 0.00 | 0.00 | 1017.0 | |
| 20260830171145 | 90 | 152 | 5.0 | 13.0 | 0.00 | 0.00 | 0.00 | 1017.1 | |
| 20260830170625 | 90 | 208 | 7.0 | 13.0 | 0.00 | 0.00 | 0.00 | 1017.2 | |
| 20260830170155 | 90 | 201 | 3.0 | 11.0 | 0.00 | 0.00 | 0.00 | 1017.2 | |
| 20260830165730 | 89 | 196 | 6.0 | 12.0 | 0.00 | 0.00 | 0.00 | 1017.3 | |
| 20260830165118 | 89 | 203 | 5.0 | 11.0 | 0.00 | 0.00 | 0.00 | 1017.3 | |
| 20260830164656 | 88 | 212 | 6.0 | 11.0 | 0.00 | 0.00 | 0.00 | 1017.3 | |
| 20260830164202 | 88 | 151 | 7.0 | 12.0 | 0.00 | 0.00 | 0.00 | 1017.4 | |
| 20260830163716 | 88 | 145 | 9.0 | 12.0 | 0.00 | 0.00 | 0.00 | 1017.4 | |
| 20260830163124 | 87 | 189 | 5.0 | 13.0 | 0.00 | 0.00 | 0.00 | 1017.4 | |
| 20260830162652 | 87 | 150 | 7.0 | 13.0 | 0.00 | 0.00 | 0.00 | 1017.4 | |
| 20260830162127 | 87 | 221 | 8.0 | 13.0 | 0.00 | 0.00 | 0.00 | 1017.4 | |
| 20260830161645 | 86 | 219 | 6.0 | 10.0 | 0.00 | 0.00 | 0.00 | 1017.3 | |
| 20260830161124 | 86 | 187 | 4.0 | 11.0 | 0.00 | 0.00 | 0.00 | 1017.4 | |
| 20260830160653 | 86 | 169 | 8.0 | 11.0 | 0.00 | 0.00 | 0.00 | 1017.4 | |
| 20260830160129 | 86 | 156 | 6.0 | 14.0 | 0.00 | 0.00 | 0.00 | 1017.5 | |
| 20260830155657 | 86 | 230 | 9.0 | 14.0 | 0.00 | 0.00 | 0.00 | 1017.5 | |
| 20260830155125 | 86 | 214 | 8.0 | 13.0 | 0.00 | 0.00 | 0.00 | 1017.4 | |
| 20260830154703 | 86 | 174 | 7.0 | 10.0 | 0.00 | 0.00 | 0.00 | 1017.4 | |
| 20260830154130 | 85 | 173 | 6.0 | 10.0 | 0.00 | 0.00 | 0.00 | 1017.4 | |
| 20260830153643 | 85 | 194 | 5.0 | 11.0 | 0.00 | 0.00 | 0.00 | 1017.3 | |
| 20260830153126 | 85 | 163 | 6.0 | 11.0 | 0.00 | 0.00 | 0.00 | 1017.4 | |
| 20260830152654 | 84 | 182 | 6.0 | 11.0 | 0.00 | 0.00 | 0.00 | 1017.4 | |
| 20260830152205 | 84 | 180 | 8.0 | 11.0 | 0.00 | 0.00 | 0.00 | 1017.3 | |
| 20260830151617 | 84 | 182 | 6.0 | 9.0 | 0.00 | 0.00 | 0.00 | 1017.2 | |
| 20260830151153 | 84 | 200 | 6.0 | 11.0 | 0.00 | 0.00 | 0.00 | 1017.4 | |
| 20260830150623 | 83 | 146 | 7.0 | 12.0 | 0.00 | 0.00 | 0.00 | 1017.4 | |
| 20260830150132 | 83 | 165 | 6.0 | 12.0 | 0.00 | 0.00 | 0.00 | 1017.4 | |
| 20260830145646 | 83 | 205 | 5.0 | 10.0 | 0.00 | 0.00 | 0.00 | 1017.4 | |
| 20260830145115 | 83 | 159 | 6.0 | 11.0 | 0.00 | 0.00 | 0.00 | 1017.4 | |
| 20260830144651 | 83 | 159 | 5.0 | 11.0 | 0.00 | 0.00 | 0.00 | 1017.3 | |
| 20260830144121 | 82 | 179 | 7.0 | 11.0 | 0.00 | 0.00 | 0.00 | 1017.4 | |
| 20260830143130 | 81 | 172 | 5.0 | 8.0 | 0.00 | 0.00 | 0.00 | 1017.4 | |
| 20260830142130 | 79 | 151 | 7.0 | 13.0 | 0.00 | 0.00 | 0.00 | 1017.4 | |
| 20260830141658 | 78 | 153 | 7.0 | 13.0 | 0.00 | 0.00 | 0.00 | 1017.3 | |
| 20260830141134 | 78 | 142 | 6.0 | 11.0 | 0.00 | 0.00 | 0.00 | 1017.2 | |
| 20260830140703 | 77 | 148 | 7.0 | 11.0 | 0.00 | 0.00 | 0.00 | 1017.3 | |
| 20260830140139 | 77 | 159 | 5.0 | 9.0 | 0.00 | 0.00 | 0.00 | 1017.4 | |
| 20260830135707 | 77 | 193 | 5.0 | 9.0 | 0.00 | 0.00 | 0.00 | 1017.3 | |
| 20260830135128 | 76 | 143 | 4.0 | 9.0 | 0.00 | 0.00 | 0.00 | 1017.3 | |
| 20260830134656 | 76 | 98 | 0.0 | 4.0 | 0.00 | 0.00 | 0.00 | 1017.3 | |
| 20260830134125 | 75 | 73 | 2.0 | 3.0 | 0.00 | 0.00 | 0.00 | 1017.2 | |
| 20260830133637 | 75 | 138 | 0.0 | 1.0 | 0.00 | 0.00 | 0.00 | 1017.2 | |
| 20260830133146 | 74 | 138 | 0.0 | 1.0 | 0.00 | 0.00 | 0.00 | 1017.2 | |
| 20260830132653 | 74 | 138 | 0.0 | 0.0 | 0.00 | 0.00 | 0.00 | 1017.1 | |
| 20260830132208 | 73 | 138 | 0.0 | 0.0 | 0.00 | 0.00 | 0.00 | 1017.1 | |
| 20260830131615 | 73 | 138 | 0.0 | 2.0 | 0.00 | 0.00 | 0.00 | 1017.1 | |
| 20260830131151 | 73 | 138 | 0.0 | 2.0 | 0.00 | 0.00 | 0.00 | 1017.0 | |
| 20260830130659 | 73 | 138 | 1.0 | 2.0 | 0.00 | 0.00 | 0.00 | 1017.0 | |
| 20260830130136 | 72 | 138 | 0.0 | 1.0 | 0.00 | 0.00 | 0.00 | 1017.0 | |
| 20260830125706 | 72 | 138 | 0.0 | 0.0 | 0.00 | 0.00 | 0.00 | 1016.9 | |
| 20260830125144 | 71 | 138 | 0.0 | 1.0 | 0.00 | 0.00 | 0.00 | 1016.9 | |
| 20260830124613 | 71 | 138 | 0.0 | 1.0 | 0.00 | 0.00 | 0.00 | 1017.0 | |
| 20260830124120 | 71 | 138 | 0.0 | 1.0 | 0.00 | 0.00 | 0.00 | 1016.9 | |
| 20260830123657 | 71 | 138 | 0.0 | 0.0 | 0.00 | 0.00 | 0.00 | 1016.8 | |
| 20260830123123 | 71 | 138 | 0.0 | 0.0 | 0.00 | 0.00 | 0.00 | 1016.7 | |
| 20260830122659 | 71 | 138 | 0.0 | 0.0 | 0.00 | 0.00 | 0.00 | 1016.7 | |
| 20260830122145 | 71 | 138 | 0.0 | 0.0 | 0.00 | 0.00 | 0.00 | 1016.6 | |
| 20260830121714 | 71 | 138 | 0.0 | 0.0 | 0.00 | 0.00 | 0.00 | 1016.6 | |
| 20260830121129 | 71 | 138 | 0.0 | 0.0 | 0.00 | 0.00 | 0.00 | 1016.5 |